User: anonymous
Location: Unspecified
(0.0000°N, 0.0000°E)
Time: 04:50:30
(UTC+02:00)
Language:

NOSS 2-2 (E) - Orbit

View from above orbital plane
View from above orbital plane
View from above satellite
View from above satellite

Ground track
Ground track

The orbit data is extracted from the following two-line orbital elements,

1 21809U 91076E   14255.92246975 0.00000350  00000-0  17127-3 0    06
2 21809  63.3680 178.5210 0659000  12.4396 347.5604 13.40936660    04
Epoch (UTC): 12 September 2014 22:08:21
Eccentricity: 0.0659000
inclination: 63.3680°
perigee height: 612 km
apogee height: 1599 km
right ascension of ascending node: 178.5210°
argument of perigee: 12.4396°
revolutions per day: 13.40936660
mean anomaly at epoch: 347.5604°
orbit number at epoch: 0

The dashed part of the orbit path shows where the satellite is in the earth's shadow,  

DLR